Starlink 5610

operational
NORAD ID: 57244 Int'l Des: 2023-094 Owner: SPXS Country: US Constellation: starlink
LEOCIRCULAR

About Starlink 5610

Description loading...

Live Position

Loading 3D Globe...

Upcoming Passes

Altitude History

Altitude vs Time

uPlot chart will show altitude changes over time

Two-Line Element Set

1 57244U 23094AC 26101.68646131 .00000265 00000-0 19571-4 0 9995
2 57244 43.0028 192.9178 0001263 270.7738 89.2969 15.26740064152291
Epoch: Apr 11, 2026 • Age: 14 hours

Current Status

Altitude 484.7 km
Velocity 7.63 km/s
Sub-Earth Point 9.17°N, 100.97°W
Launch Date Jul 7, 2023
Age 2.7 years
Type internet

Technical Details

Classification Payload
Mass 305.00 kg
Dry Mass 290.00 kg
Total Mass 305.00 kg
Length 0.20 m
Diameter 2.80 m
Span 9.00 m
Shape Box + pan
Manufacturer SPXS
Bus Type Starlink
Phase Status In Orbit
Owner/State SPXS/US

Large Constellations

Loading constellations...